Погода в Литоне

Австралия     34°33′02″S   146°24′18″E
темп.,
°C
ветер,
м/с
пор.,
м/с
влажн.,
%
обл.,
%
осадки,
мм/ч
давл.,
гПа
погр.,
м
8 мая, сб
сб801:00+15з226393 0.0 101325
04:00+16зсз1161100 0.0 101213
07:00+14сз2262100 0.0 101411
10:00+19зсз2344100 0.0 1014319
13:00+22зсз453170 0.0 10131204
16:00+21зсз6735100 0.0 10141167
19:00+16зсз375724 0.0 1016158
22:00+14сз37805 0.0 1018159
9 мая, вс
вс901:00+13сз22895 0.0 101827
04:00+12ссз11933 0.0 101814
07:00+12с11925 0.0 101911
10:00+18с23635 0.0 1020505
13:00+22ссз23473 0.0 10171355
16:00+22сз234216 0.0 10161790
19:00+17сз22610 0.0 101714
22:00+15ссз22665 0.0 101712
10 мая, пн
пн1001:00+14ссв22735 0.0 101620
04:00+15с256926 0.1 1014141
07:00+15ссз3106948 0.1 1015314
10:00+18зсз5857100 0.1 1015589
13:00+20з71051100 0.3 10131615
16:00+18зюз7850100 0.3 10141272
19:00+14юз47755 0.0 1017442
22:00+11ю310740 0.0 1019333
11 мая, вт
вт1101:00+8юз3981100 0.0 1020288
04:00+7юз21075100 0.0 1021282
07:00+6юз2274100 0.0 102245
10:00+11ююз3556100 0.0 1024646
13:00+14ююз334548 0.0 10221224
16:00+15юв23471 0.0 10221366
19:00+10в22570 0.0 102412
22:00+9вюв33640 0.0 102651
12 мая, ср
ср1201:00+8в411760 0.0 1026322
04:00+7в3107623 0.0 1027254
07:00+7в411780 0.0 1028247
10:00+14всв57540 0.0 1028568
13:00+18всв56430 0.0 10251145
16:00+19св45450 0.0 10241404
19:00+14всв22640 0.0 102610
22:00+12всв36720 0.0 1026113